Weather History for Colby, KS

Change the Weather History Date:

Saturday, November 3, 2012

  Actual Average (KGLD) Record (KGLD)
Temperature  
Mean Temperature 46 °F 45 °F  
Max Temperature 62 °F 59 °F 82 °F (1915)
Min Temperature 30 °F 31 °F 1 °F (1991)
Degree Days  
Heating Degree Days 19 20  
Month to date heating degree days 59  
Since 1 July heating degree days 599  
Cooling Degree Days 0 0  
Month to date cooling degree days 0  
Year to date cooling degree days 941  
Moisture  
Dew Point 35 °F    
Average Humidity 72    
Maximum Humidity 100    
Minimum Humidity 34    
Precipitation  
Precipitation 0.00 in 0.03 in 0.66 in (1974)
Month to date precipitation 0.09  
Year to date precipitation 18.58  
Snow  
Snow - 0.10 in - ()
Month to date snowfall 0.4  
Since 1 July snowfall 3.0  
Since 1 September snowfall 3.0  
Snow Depth -    
Sea Level Pressure  
Sea Level Pressure 30.18 in    
Wind  
Wind Speed 8 mph ()    
Max Wind Speed 13 mph    
Max Gust Speed 22 mph    
Visibility 10.0 miles    
Events      
T = Trace of Precipitation, MM = Missing Value Source: Averaged Metar Reports

Daily Weather History Graph

Daily Weather History Graph

Search for Another Location

Airport:

Trip Planner

Search our weather history database for the weather conditions in past years. The results will help you decide how hot, cold, wet, or windy it might be!

Date:

Astronomy

Nov. 03, 2012 Rise Set
Actual Time 8:15 AM CDT 6:39 PM CDT
Civil Twilight 7:47 AM CDT 7:07 PM CDT
Nautical Twilight 7:15 AM CDT 7:39 PM CDT
Astronomical Twilight 6:43 AM CDT 8:11 PM CDT
Moon 10:23 PM CDT (11/3) 12:20 PM CDT (11/3)
Length of Visible Light 11h 20m
Length of Day
10h 24m
Waning Gibbous, 80% of the Moon is Illuminated
Nov 3
Waning Gibbous
Nov 6
Last Quarter
Nov 13
New
Nov 20
First Quarter
Nov 28
Full

Hourly Weather History & Observations

Time (CDT) Temp. Windchill Dew Point Humidity Pressure Visibility Wind Dir Wind Speed Gust Speed Precip Events Conditions
12:15 AM 33.8 °F 26.4 °F 32.0 °F 93% 30.15 in 10.0 mi NW 9.2 mph - N/A   Clear
12:35 AM 33.8 °F 25.8 °F 32.0 °F 93% 30.15 in 10.0 mi NW 10.4 mph - N/A   Clear
12:55 AM 33.8 °F 25.8 °F 32.0 °F 93% 30.16 in 10.0 mi WNW 10.4 mph - N/A   Clear
1:15 AM 32.0 °F 24.8 °F 32.0 °F 100% 30.17 in 10.0 mi WNW 8.1 mph - N/A   Clear
1:35 AM 32.0 °F 24.2 °F 32.0 °F 100% 30.17 in 10.0 mi WNW 9.2 mph - N/A   Clear
1:55 AM 32.0 °F 23.6 °F 32.0 °F 100% 30.17 in 10.0 mi NW 10.4 mph - N/A   Clear
2:15 AM 32.0 °F 24.2 °F 32.0 °F 100% 30.18 in 10.0 mi WNW 9.2 mph - N/A   Clear
2:35 AM 32.0 °F 24.8 °F 32.0 °F 100% 30.17 in 10.0 mi WNW 8.1 mph - N/A   Clear
2:55 AM 32.0 °F 25.6 °F 32.0 °F 100% 30.18 in 10.0 mi WNW 6.9 mph - N/A   Clear
3:15 AM 32.0 °F 23.0 °F 32.0 °F 100% 30.18 in 10.0 mi WNW 11.5 mph - N/A   Clear
3:35 AM 32.0 °F 24.2 °F 32.0 °F 100% 30.18 in 10.0 mi WNW 9.2 mph - N/A   Clear
3:55 AM 32.0 °F 25.6 °F 32.0 °F 100% 30.19 in 10.0 mi WNW 6.9 mph - N/A   Clear
4:15 AM 32.0 °F 23.6 °F 32.0 °F 100% 30.18 in 10.0 mi WNW 10.4 mph - N/A   Clear
4:35 AM 33.8 °F 27.0 °F 33.8 °F 100% 30.18 in 10.0 mi WNW 8.1 mph - N/A   Clear
4:55 AM 33.8 °F 27.7 °F 32.0 °F 93% 30.19 in 10.0 mi NW 6.9 mph - N/A   Clear
5:15 AM 32.0 °F 24.8 °F 32.0 °F 100% 30.19 in 10.0 mi NW 8.1 mph - N/A   Clear
5:35 AM 32.0 °F 25.6 °F 32.0 °F 100% 30.19 in 10.0 mi NW 6.9 mph - N/A   Clear
5:55 AM 32.0 °F 24.8 °F 32.0 °F 100% 30.19 in 10.0 mi WNW 8.1 mph - N/A   Clear
6:15 AM 32.0 °F 24.2 °F 32.0 °F 100% 30.19 in 10.0 mi WNW 9.2 mph - N/A   Clear
6:35 AM 32.0 °F 26.4 °F 32.0 °F 100% 30.20 in 10.0 mi WSW 5.8 mph - N/A   Clear
6:55 AM 30.2 °F 23.4 °F 30.2 °F 100% 30.20 in 10.0 mi West 6.9 mph - N/A   Clear
7:15 AM 32.0 °F 24.8 °F 32.0 °F 100% 30.20 in 10.0 mi West 8.1 mph - N/A   Clear
7:35 AM 32.0 °F 24.2 °F 32.0 °F 100% 30.20 in 10.0 mi NW 9.2 mph - N/A   Clear
7:55 AM 32.0 °F 23.6 °F 32.0 °F 100% 30.20 in 10.0 mi NW 10.4 mph - N/A   Clear
8:15 AM 32.0 °F 25.6 °F 32.0 °F 100% 30.21 in 10.0 mi WNW 6.9 mph - N/A   Clear
8:35 AM 32.0 °F 23.6 °F 32.0 °F 100% 30.21 in 10.0 mi WNW 10.4 mph - N/A   Clear
8:55 AM 32.0 °F 25.6 °F 32.0 °F 100% 30.21 in 10.0 mi NW 6.9 mph - N/A   Clear
9:15 AM 35.6 °F 29.2 °F 35.6 °F 100% 30.22 in 10.0 mi NW 8.1 mph - N/A   Clear
9:35 AM 41.0 °F 37.1 °F 37.4 °F 87% 30.23 in 10.0 mi WNW 5.8 mph - N/A   Clear
9:55 AM 42.8 °F 38.6 °F 37.4 °F 81% 30.23 in 10.0 mi West 6.9 mph - N/A   Clear
10:15 AM 44.6 °F 40.2 °F 39.2 °F 81% 30.24 in 10.0 mi WSW 8.1 mph - N/A   Clear
10:35 AM 46.4 °F 44.3 °F 41.0 °F 81% 30.24 in 10.0 mi WSW 4.6 mph - N/A   Clear
10:55 AM 48.2 °F - 41.0 °F 76% 30.24 in 10.0 mi West 3.5 mph - N/A   Clear
11:15 AM 51.8 °F - 41.0 °F 67% 30.24 in 10.0 mi Calm Calm - N/A   Clear
11:35 AM 51.8 °F - 41.0 °F 67% 30.24 in 10.0 mi SW 3.5 mph - N/A   Clear
11:55 AM 53.6 °F - 41.0 °F 62% 30.24 in 10.0 mi South 3.5 mph - N/A   Clear
12:15 PM 55.4 °F - 41.0 °F 58% 30.24 in 10.0 mi South 3.5 mph - N/A   Clear
12:35 PM 57.2 °F - 39.2 °F 51% 30.23 in 10.0 mi South 5.8 mph - N/A   Clear
12:55 PM 57.2 °F - 39.2 °F 51% 30.22 in 10.0 mi SSW 4.6 mph - N/A   Clear
1:15 PM 59.0 °F - 39.2 °F 48% 30.21 in 10.0 mi South 5.8 mph - N/A   Clear
1:35 PM 59.0 °F - 35.6 °F 42% 30.20 in 10.0 mi South 8.1 mph - N/A   Clear
1:55 PM 60.8 °F - 37.4 °F 42% 30.20 in 10.0 mi SSE 8.1 mph - N/A   Clear
2:15 PM 60.8 °F - 37.4 °F 42% 30.19 in 10.0 mi SSE 6.9 mph - N/A   Clear
2:35 PM 60.8 °F - 35.6 °F 39% 30.18 in 10.0 mi South 6.9 mph - N/A   Clear
2:55 PM 62.6 °F - 37.4 °F 39% 30.17 in 10.0 mi SSE 9.2 mph - N/A   Clear
3:15 PM 62.6 °F - 35.6 °F 37% 30.16 in 10.0 mi South 5.8 mph 9.2 mph N/A   Clear
3:35 PM 62.6 °F - 35.6 °F 37% 30.16 in 10.0 mi South 11.5 mph - N/A   Clear
3:55 PM 62.6 °F - 35.6 °F 37% 30.15 in 10.0 mi South 11.5 mph - N/A   Clear
4:15 PM 62.6 °F - 35.6 °F 37% 30.15 in 10.0 mi South 12.7 mph 16.1 mph N/A   Clear
4:35 PM 62.6 °F - 33.8 °F 34% 30.15 in 10.0 mi South 9.2 mph 21.9 mph N/A   Clear
4:55 PM 62.6 °F - 35.6 °F 37% 30.14 in 10.0 mi South 11.5 mph - N/A   Clear
5:15 PM 60.8 °F - 35.6 °F 39% 30.14 in 10.0 mi South 8.1 mph - N/A   Clear
5:35 PM 60.8 °F - 35.6 °F 39% 30.14 in 10.0 mi South 9.2 mph - N/A   Clear
5:55 PM 60.8 °F - 35.6 °F 39% 30.14 in 10.0 mi SSE 10.4 mph - N/A   Clear
6:15 PM 59.0 °F - 35.6 °F 42% 30.14 in 10.0 mi SSE 10.4 mph - N/A   Clear
6:35 PM 57.2 °F - 35.6 °F 44% 30.14 in 10.0 mi SSE 10.4 mph - N/A   Clear
6:55 PM 55.4 °F - 35.6 °F 47% 30.14 in 10.0 mi SSE 10.4 mph - N/A   Clear
7:15 PM 55.4 °F - 35.6 °F 47% 30.15 in 10.0 mi SSE 10.4 mph - N/A   Clear
7:35 PM 53.6 °F - 35.6 °F 51% 30.15 in 10.0 mi SSE 10.4 mph - N/A   Clear
7:55 PM 53.6 °F - 35.6 °F 51% 30.16 in 10.0 mi SSE 10.4 mph - N/A   Clear
8:15 PM 51.8 °F - 35.6 °F 54% 30.17 in 10.0 mi SSE 11.5 mph - N/A   Clear
8:35 PM 51.8 °F - 35.6 °F 54% 30.16 in 10.0 mi SSE 12.7 mph - N/A   Clear
8:55 PM 50.0 °F - 35.6 °F 58% 30.16 in 10.0 mi SSE 10.4 mph - N/A   Clear
9:15 PM 48.2 °F - 35.6 °F 62% 30.16 in 10.0 mi SSE 10.4 mph - N/A   Clear
9:35 PM 48.2 °F - 35.6 °F 62% 30.16 in 10.0 mi South 11.5 mph - N/A   Clear
9:55 PM 50.0 °F - 35.6 °F 58% 30.16 in 10.0 mi South 12.7 mph - N/A   Clear
10:15 PM 48.2 °F - 35.6 °F 62% 30.16 in 10.0 mi South 11.5 mph - N/A   Clear
10:35 PM 46.4 °F 41.1 °F 35.6 °F 66% 30.16 in 10.0 mi South 11.5 mph - N/A   Clear
10:55 PM 46.4 °F 41.9 °F 33.8 °F 62% 30.16 in 10.0 mi SSW 9.2 mph - N/A   Clear
11:15 PM 42.8 °F 38.0 °F 33.8 °F 70% 30.16 in 10.0 mi SSW 8.1 mph - N/A   Clear
11:35 PM 42.8 °F 37.5 °F 33.8 °F 70% 30.16 in 10.0 mi SSW 9.2 mph - N/A   Clear
11:55 PM 42.8 °F 38.0 °F 33.8 °F 70% 30.16 in 10.0 mi SSW 8.1 mph - N/A   Clear